• Em Portugal
  • Lista de países
  • Para 7 dias
  • Temperatura da água
  • Mapas de satélite
  • Mapa do tempo
  • Widgets de tempo
  • user-avatar
    Iniciar Sessão

    Previsão horária em Shiraz

    Hoje, 25 Setembro, Segunda-feira

    Tempo Temperatura Precipitação Vento Pressão Humidade
    00:00 +25°C° 0 mm 1 m/s 639 mmHg 16%
    01:00 +24°C° 0 mm 1 m/s 638 mmHg 17%
    02:00 +23°C° 0 mm 1 m/s 638 mmHg 16%
    03:00 +23°C° 0 mm 1 m/s 638 mmHg 16%
    04:00 +22°C° 0 mm 1 m/s 638 mmHg 17%
    05:00 +22°C° 0 mm 1 m/s 638 mmHg 17%
    06:00 +22°C° 0 mm 1 m/s 638 mmHg 17%
    07:00 +22°C° 0 mm 1 m/s 638 mmHg 16%
    08:00 +24°C° 0 mm 1 m/s 639 mmHg 14%
    09:00 +26°C° 0 mm 2 m/s 639 mmHg 13%
    10:00 +27°C° 0 mm 2 m/s 640 mmHg 11%
    11:00 +28°C° 0 mm 2 m/s 640 mmHg 10%
    12:00 +29°C° 0 mm 1 m/s 640 mmHg 9%
    13:00 +30°C° 0 mm 1 m/s 640 mmHg 9%
    14:00 +30°C° 0 mm 1 m/s 639 mmHg 8%
    15:00 +31°C° 0 mm 1 m/s 639 mmHg 8%
    16:00 +31°C° 0 mm 1 m/s 639 mmHg 8%
    17:00 +30°C° 0 mm 1 m/s 639 mmHg 9%
    18:00 +29°C° 0 mm 1 m/s 638 mmHg 10%
    19:00 +28°C° 0 mm 1 m/s 638 mmHg 12%
    20:00 +27°C° 0 mm 1 m/s 638 mmHg 13%
    21:00 +26°C° 0 mm 1 m/s 638 mmHg 14%
    22:00 +25°C° 0 mm 1 m/s 638 mmHg 15%
    23:00 +25°C° 0 mm 1 m/s 638 mmHg 16%

    Amanhã, 26 Setembro, Terça-feira

    Tempo Temperatura Precipitação Vento Pressão Humidade
    00:00 +24°C° 0 mm 1 m/s 638 mmHg 17%
    01:00 +23°C° 0 mm 1 m/s 637 mmHg 18%
    02:00 +23°C° 0 mm 1 m/s 637 mmHg 18%
    03:00 +22°C° 0 mm 1 m/s 637 mmHg 18%
    04:00 +22°C° 0 mm 1 m/s 637 mmHg 18%
    05:00 +22°C° 0 mm 1 m/s 637 mmHg 18%
    06:00 +22°C° 0 mm 1 m/s 637 mmHg 18%
    07:00 +21°C° 0 mm 1 m/s 637 mmHg 18%
    08:00 +24°C° 0 mm 1 m/s 638 mmHg 15%
    09:00 +26°C° 0 mm 1 m/s 639 mmHg 12%
    10:00 +28°C° 0 mm 1 m/s 640 mmHg 10%
    11:00 +29°C° 0 mm 1 m/s 640 mmHg 9%
    12:00 +30°C° 0 mm 1 m/s 640 mmHg 9%
    13:00 +31°C° 0 mm 1 m/s 640 mmHg 8%
    14:00 +31°C° 0 mm 1 m/s 639 mmHg 8%
    15:00 +31°C° 0 mm 1 m/s 639 mmHg 7%
    16:00 +31°C° 0 mm 1 m/s 639 mmHg 7%
    17:00 +30°C° 0 mm 1 m/s 638 mmHg 9%
    18:00 +29°C° 0 mm 1 m/s 638 mmHg 10%
    19:00 +28°C° 0 mm 1 m/s 638 mmHg 11%
    20:00 +27°C° 0 mm 1 m/s 638 mmHg 13%
    21:00 +26°C° 0 mm 1 m/s 638 mmHg 14%
    22:00 +25°C° 0 mm 1 m/s 638 mmHg 15%
    23:00 +25°C° 0 mm 1 m/s 638 mmHg 16%

    Depois de amanhã, 27 Setembro, Quarta-feira

    Tempo Temperatura Precipitação Vento Pressão Humidade
    00:00 +22°C° 0 mm 0 m/s 638 mmHg 17%
    01:00 +21°C° 0 mm 0 m/s 638 mmHg 18%
    02:00 +21°C° 0 mm 0 m/s 638 mmHg 18%
    03:00 +20°C° 0 mm 0 m/s 637 mmHg 19%
    04:00 +20°C° 0 mm 0 m/s 637 mmHg 19%
    05:00 +20°C° 0 mm 0 m/s 637 mmHg 20%
    06:00 +20°C° 0 mm 0 m/s 638 mmHg 20%
    07:00 +20°C° 0 mm 0 m/s 638 mmHg 20%
    08:00 +22°C° 0 mm 0 m/s 639 mmHg 17%
    09:00 +24°C° 0 mm 0 m/s 640 mmHg 13%
    10:00 +27°C° 0 mm 0 m/s 641 mmHg 10%
    11:00 +30°C° 0 mm 1 m/s 641 mmHg 9%
    12:00 +31°C° 0 mm 1 m/s 641 mmHg 9%
    13:00 +32°C° 0 mm 1 m/s 641 mmHg 8%
    14:00 +32°C° 0 mm 1 m/s 641 mmHg 8%
    15:00 +32°C° 0 mm 2 m/s 640 mmHg 8%
    16:00 +32°C° 0 mm 2 m/s 640 mmHg 8%
    17:00 +31°C° 0 mm 2 m/s 639 mmHg 10%
    18:00 +30°C° 0 mm 2 m/s 639 mmHg 12%
    19:00 +29°C° 0 mm 1 m/s 639 mmHg 13%
    20:00 +28°C° 0 mm 1 m/s 639 mmHg 15%
    21:00 +27°C° 0 mm 1 m/s 639 mmHg 17%
    22:00 +26°C° 0 mm 1 m/s 639 mmHg 19%
    23:00 +25°C° 0 mm 1 m/s 639 mmHg 20%

    28 Setembro, Quinta-feira

    Tempo Temperatura Precipitação Vento Pressão Humidade
    00:00 +25°C° 0 mm 1 m/s 638 mmHg 22%
    01:00 +24°C° 0 mm 1 m/s 638 mmHg 24%
    02:00 +23°C° 0 mm 1 m/s 638 mmHg 25%
    03:00 +23°C° 0 mm 1 m/s 637 mmHg 26%
    04:00 +22°C° 0 mm 1 m/s 637 mmHg 28%
    05:00 +22°C° 0 mm 1 m/s 637 mmHg 28%
    06:00 +20°C° 0 mm 0 m/s 637 mmHg 28%
    07:00 +20°C° 0 mm 0 m/s 638 mmHg 29%
    08:00 +22°C° 0 mm 0 m/s 639 mmHg 25%
    09:00 +24°C° 0 mm 0 m/s 640 mmHg 20%
    10:00 +27°C° 0 mm 0 m/s 640 mmHg 16%
    11:00 +30°C° 0 mm 1 m/s 640 mmHg 15%
    12:00 +31°C° 0 mm 1 m/s 640 mmHg 13%
    13:00 +32°C° 0 mm 1 m/s 640 mmHg 12%
    14:00 +32°C° 0 mm 2 m/s 640 mmHg 12%
    15:00 +32°C° 0 mm 2 m/s 639 mmHg 11%
    16:00 +32°C° 0 mm 2 m/s 639 mmHg 11%
    17:00 +31°C° 0 mm 2 m/s 639 mmHg 13%
    18:00 +30°C° 0 mm 2 m/s 639 mmHg 14%
    19:00 +29°C° 0 mm 2 m/s 638 mmHg 16%
    20:00 +28°C° 0 mm 1 m/s 638 mmHg 18%
    21:00 +27°C° 0 mm 1 m/s 638 mmHg 20%
    22:00 +26°C° 0 mm 1 m/s 638 mmHg 22%
    23:00 +26°C° 0 mm 1 m/s 638 mmHg 23%

    29 Setembro, Sexta-feira

    Tempo Temperatura Precipitação Vento Pressão Humidade
    00:00 +25°C° 0 mm 1 m/s 638 mmHg 25%
    01:00 +24°C° 0 mm 1 m/s 637 mmHg 27%
    02:00 +24°C° 0 mm 1 m/s 637 mmHg 28%
    03:00 +23°C° 0 mm 1 m/s 636 mmHg 28%
    04:00 +20°C° 0 mm 0 m/s 636 mmHg 29%
    05:00 +20°C° 0 mm 0 m/s 636 mmHg 30%
    06:00 +20°C° 0 mm 0 m/s 637 mmHg 30%
    07:00 +20°C° 0 mm 0 m/s 637 mmHg 30%
    08:00 +22°C° 0 mm 0 m/s 638 mmHg 25%
    09:00 +27°C° 0 mm 1 m/s 639 mmHg 21%
    10:00 +29°C° 0 mm 1 m/s 639 mmHg 16%
    11:00 +30°C° 0 mm 1 m/s 639 mmHg 15%
    12:00 +31°C° 0 mm 1 m/s 639 mmHg 13%
    13:00 +32°C° 0 mm 2 m/s 639 mmHg 12%
    14:00 +32°C° 0 mm 2 m/s 639 mmHg 11%
    15:00 +32°C° 0 mm 2 m/s 638 mmHg 11%
    16:00 +34°C° 0 mm 2 m/s 638 mmHg 10%
    17:00 +31°C° 0 mm 2 m/s 638 mmHg 12%
    18:00 +30°C° 0 mm 2 m/s 638 mmHg 13%
    19:00 +29°C° 0 mm 1 m/s 638 mmHg 14%
    20:00 +28°C° 0 mm 1 m/s 638 mmHg 15%
    21:00 +27°C° 0 mm 1 m/s 638 mmHg 16%
    22:00 +26°C° 0 mm 1 m/s 638 mmHg 18%
    23:00 +26°C° 0 mm 1 m/s 638 mmHg 18%

    30 Setembro, Sábado

    Tempo Temperatura Precipitação Vento Pressão Humidade
    00:00 +25°C° 0 mm 1 m/s 637 mmHg 19%
    01:00 +22°C° 0 mm 0 m/s 637 mmHg 20%
    02:00 +21°C° 0 mm 0 m/s 637 mmHg 21%
    03:00 +21°C° 0 mm 0 m/s 637 mmHg 22%
    04:00 +20°C° 0 mm 0 m/s 637 mmHg 22%
    05:00 +20°C° 0 mm 0 m/s 637 mmHg 23%
    06:00 +20°C° 0 mm 0 m/s 637 mmHg 23%
    07:00 +20°C° 0 mm 0 m/s 638 mmHg 24%
    08:00 +23°C° 0 mm 0 m/s 639 mmHg 20%
    09:00 +27°C° 0 mm 1 m/s 640 mmHg 17%
    10:00 +29°C° 0 mm 1 m/s 641 mmHg 14%
    11:00 +30°C° 0 mm 1 m/s 641 mmHg 13%
    12:00 +31°C° 0 mm 2 m/s 641 mmHg 12%
    13:00 +32°C° 0 mm 2 m/s 641 mmHg 11%
    14:00 +32°C° 0 mm 2 m/s 640 mmHg 10%
    15:00 +32°C° 0 mm 2 m/s 640 mmHg 10%
    16:00 +32°C° 0 mm 2 m/s 640 mmHg 10%
    17:00 +31°C° 0 mm 2 m/s 640 mmHg 11%
    18:00 +30°C° 0 mm 2 m/s 639 mmHg 12%
    19:00 +29°C° 0 mm 1 m/s 639 mmHg 14%
    20:00 +28°C° 0 mm 1 m/s 639 mmHg 15%
    21:00 +27°C° 0 mm 1 m/s 639 mmHg 16%
    22:00 +26°C° 0 mm 1 m/s 639 mmHg 16%
    23:00 +25°C° 0 mm 1 m/s 639 mmHg 17%
    Mostrar mais